Time,TemperatureF,DewpointF,PressureIn,WindDirection,WindDirectionDegrees,WindSpeedMPH,WindSpeedGustMPH,Humidity,HourlyPrecipIn,Conditions,Clouds,dailyrainin,SolarRadiationWatts/m^2,SoftwareType,DateUTC
2013-06-11 00:00:00,78.0,77.0,-100.00,South,188,1.0,-999.0,96,-99.99,,,-99.99,0.000000,,2013-06-11 05:00:00,
2013-06-11 00:52:00,78.0,77.0,-100.00,South,188,1.0,-999.0,96,-99.99,,,-99.99,0.000000,,2013-06-11 05:52:00,
2013-06-11 03:00:00,75.0,74.0,-100.00,NE,53,0.0,-999.0,98,-99.99,,,-99.99,0.000000,,2013-06-11 08:00:00,
2013-06-11 03:52:00,75.0,74.0,-100.00,NE,53,0.0,-999.0,98,-99.99,,,-99.99,0.000000,,2013-06-11 08:52:00,
2013-06-11 04:00:00,74.0,73.0,-100.00,North,0,0.0,-999.0,98,-99.99,,,-99.99,0.000000,,2013-06-11 09:00:00,
2013-06-11 04:53:00,74.0,73.0,-100.00,North,0,0.0,-999.0,98,-99.99,,,-99.99,0.000000,,2013-06-11 09:53:00,
2013-06-11 05:00:00,74.0,73.0,-100.00,North,0,0.0,-999.0,98,-99.99,,,-99.99,0.000000,,2013-06-11 10:00:00,
2013-06-11 05:52:00,74.0,73.0,-100.00,North,0,0.0,-999.0,98,-99.99,,,-99.99,0.000000,,2013-06-11 10:52:00,
2013-06-11 06:00:00,73.0,72.0,-100.00,NNE,15,0.0,-999.0,99,-99.99,,,-99.99,1.030000,,2013-06-11 11:00:00,
2013-06-11 06:52:00,73.0,72.0,-100.00,NNE,15,0.0,-999.0,99,-99.99,,,-99.99,1.030000,,2013-06-11 11:52:00,
2013-06-11 07:00:00,75.0,74.0,-100.00,North,0,0.0,-999.0,99,-99.99,,,-99.99,41.080002,,2013-06-11 12:00:00,
2013-06-11 07:52:00,75.0,74.0,-100.00,North,0,0.0,-999.0,99,-99.99,,,-99.99,41.080002,,2013-06-11 12:52:00,
2013-06-11 08:00:00,80.0,78.0,-100.00,North,353,0.0,-999.0,96,-99.99,,,-99.99,180.789993,,2013-06-11 13:00:00,
2013-06-11 08:52:00,80.0,78.0,-100.00,North,353,0.0,-999.0,96,-99.99,,,-99.99,180.789993,,2013-06-11 13:52:00,
2013-06-11 09:00:00,85.0,77.0,-100.00,West,281,2.0,-999.0,77,-99.99,,,-99.99,341.239990,,2013-06-11 14:00:00,
2013-06-11 09:53:00,85.0,77.0,-100.00,West,281,2.0,-999.0,77,-99.99,,,-99.99,341.239990,,2013-06-11 14:53:00,
2013-06-11 10:00:00,88.0,73.0,-100.00,WNW,295,1.0,-999.0,60,-99.99,,,-99.99,545.869995,,2013-06-11 15:00:00,
2013-06-11 10:53:00,88.0,73.0,-100.00,WNW,295,1.0,-999.0,60,-99.99,,,-99.99,545.869995,,2013-06-11 15:53:00,
2013-06-11 11:00:00,90.0,73.0,-100.00,NNE,21,1.0,-999.0,57,-99.99,,,-99.99,719.150024,,2013-06-11 16:00:00,
2013-06-11 11:53:00,90.0,73.0,-100.00,NNE,21,1.0,-999.0,57,-99.99,,,-99.99,719.150024,,2013-06-11 16:53:00,
2013-06-11 12:00:00,90.0,72.0,-100.00,East,96,1.0,-999.0,55,-99.99,,,-99.99,836.000000,,2013-06-11 17:00:00,
2013-06-11 12:52:00,90.0,72.0,-100.00,East,96,1.0,-999.0,55,-99.99,,,-99.99,836.000000,,2013-06-11 17:52:00,
2013-06-11 13:00:00,87.0,76.0,-100.00,WSW,247,2.0,-999.0,69,-99.99,,,-99.99,399.570007,,2013-06-11 18:00:00,
2013-06-11 13:52:00,87.0,76.0,-100.00,WSW,247,2.0,-999.0,69,-99.99,,,-99.99,399.570007,,2013-06-11 18:52:00,
2013-06-11 14:00:00,89.0,76.0,-100.00,SSW,201,5.0,-999.0,65,-99.99,,,-99.99,720.099976,,2013-06-11 19:00:00,
2013-06-11 14:53:00,89.0,76.0,-100.00,SSW,201,5.0,-999.0,65,-99.99,,,-99.99,720.099976,,2013-06-11 19:53:00,
2013-06-11 15:00:00,90.0,75.0,-100.00,SSW,212,6.0,-999.0,63,-99.99,,,-99.99,760.000000,,2013-06-11 20:00:00,
2013-06-11 15:52:00,90.0,75.0,-100.00,SSW,212,6.0,-999.0,63,-99.99,,,-99.99,760.000000,,2013-06-11 20:52:00,
2013-06-11 16:00:00,90.0,74.0,-100.00,SW,219,6.0,-999.0,60,-99.99,,,-99.99,656.640015,,2013-06-11 21:00:00,
2013-06-11 16:53:00,90.0,74.0,-100.00,SW,219,6.0,-999.0,60,-99.99,,,-99.99,656.640015,,2013-06-11 21:53:00,
2013-06-11 17:00:00,89.0,75.0,-100.00,SW,217,7.0,-999.0,63,-99.99,,,-99.99,508.350006,,2013-06-11 22:00:00,
2013-06-11 17:52:00,89.0,75.0,-100.00,SW,217,7.0,-999.0,63,-99.99,,,-99.99,508.350006,,2013-06-11 22:52:00,
2013-06-11 18:00:00,84.0,74.0,-100.00,SSW,210,6.0,-999.0,72,-99.99,,,-99.99,289.459991,,2013-06-11 23:00:00,
2013-06-11 18:52:00,84.0,74.0,-100.00,SSW,210,6.0,-999.0,72,-99.99,,,-99.99,289.459991,,2013-06-11 23:52:00,
2013-06-11 19:00:00,83.0,75.0,-100.00,SSW,211,4.0,-999.0,77,-99.99,,,-99.99,53.799999,,2013-06-12 00:00:00,
2013-06-11 19:52:00,83.0,75.0,-100.00,SSW,211,4.0,-999.0,77,-99.99,,,-99.99,53.799999,,2013-06-12 00:52:00,
2013-06-11 20:00:00,81.0,75.0,-100.00,SW,220,3.0,-999.0,83,-99.99,,,-99.99,11.320000,,2013-06-12 01:00:00,
2013-06-11 20:52:00,81.0,75.0,-100.00,SW,220,3.0,-999.0,83,-99.99,,,-99.99,11.320000,,2013-06-12 01:52:00,
2013-06-11 21:00:00,79.0,75.0,-100.00,South,191,1.0,-999.0,88,-99.99,,,-99.99,0.190000,,2013-06-12 02:00:00,
2013-06-11 21:52:00,79.0,75.0,-100.00,South,191,1.0,-999.0,88,-99.99,,,-99.99,0.190000,,2013-06-12 02:52:00,
2013-06-11 23:00:00,79.0,75.0,-100.00,SW,230,1.0,-999.0,88,-99.99,,,-99.99,0.000000,,2013-06-12 04:00:00,
2013-06-11 23:53:00,79.0,75.0,-100.00,SW,230,1.0,-999.0,88,-99.99,,,-99.99,0.000000,,2013-06-12 04:53:00,